sat.trackr.live / text

‹ back to catalog

ONEWEB-0080

NORAD 45426 · 2020-020C

PAYLOAD ACTIVE UNKNOWN

§ Identity

Operator
Country
UK
Launch date
2020-03-21
Launch site
TYMSC
Launch vehicle
Mass (kg)
RCS (m²)

Purposes: comms

External: N2YO · Heavens-Above · Gunter

§ Orbital elements

Epoch: 2026-09-20T00:30:16.825248Z

Period
109.80 min
Inclination
87.8979°
Eccentricity
0.0001555
Mean motion
13.11417194 rev/d
Perigee alt
1,216.5 km
Apogee alt
1,218.9 km
Semi-major
7,595.8 km
B*
2.2199e-4
RAAN
2.2245°
Arg perigee
95.1033°
Mean anomaly
265.0272°
Rev number
31,513

§ Raw data

ONEWEB-00801 45426U 20020C   26263.02102807  .00000091  00000+0  22199-3 0  99992 45426  87.8979   2.2245 0001555  95.1033 265.0272 13.11417194315132

JSON: /api/v1/satellites/45426 · /tle

For live sub-satellite position, see the globe view (requires WebGL).

§ Visibility from observer

Set your observer location to see the next 7 days of passes ≥ 10°. The values pass through the URL so the page stays shareable.

No JS? Fill the form by hand. The geolocation button needs JavaScript.